When you browse on this site, cookies collect data to enhance your experience and personalize the content and advertising you see.
Visit our Privacy Policy to learn more. By continuing to use the site, you agree to this use of cookies and data.
  • In Sweden
  • List of Countries
  • For 7 days
  • Water Temperature
  • Weather Map
  • Weather Widgets
  • user-avatar
    Login

    Hourly Weather Djaipur

    Today, 25 May, Monday

    Time Temperature Precipitation Wind Pressure Humidity
    00:00 +37°C° 0 mm 3 mps 719 mmHg 16%
    01:00 +36°C° 0 mm 4 mps 719 mmHg 17%
    02:00 +36°C° 0 mm 4 mps 719 mmHg 18%
    03:00 +35°C° 0 mm 4 mps 719 mmHg 20%
    04:00 +35°C° 0 mm 5 mps 719 mmHg 22%
    05:00 +34°C° 0 mm 5 mps 719 mmHg 24%
    06:00 +36°C° 0 mm 6 mps 720 mmHg 22%
    07:00 +39°C° 0 mm 7 mps 720 mmHg 20%
    08:00 +41°C° 0 mm 8 mps 721 mmHg 19%
    09:00 +44°C° 0 mm 7 mps 721 mmHg 16%
    10:00 +46°C° 0 mm 7 mps 721 mmHg 12%
    11:00 +48°C° 0 mm 6 mps 721 mmHg 9%
    12:00 +48°C° 0 mm 6 mps 720 mmHg 9%
    13:00 +49°C° 0 mm 6 mps 720 mmHg 8%
    14:00 +49°C° 0 mm 6 mps 719 mmHg 8%
    15:00 +49°C° 0 mm 6 mps 719 mmHg 8%
    16:00 +48°C° 0 mm 6 mps 718 mmHg 9%
    17:00 +48°C° 0 mm 6 mps 718 mmHg 9%
    18:00 +46°C° 0 mm 5 mps 718 mmHg 10%
    19:00 +44°C° 0 mm 4 mps 718 mmHg 11%
    20:00 +42°C° 0 mm 3 mps 719 mmHg 12%
    21:00 +41°C° 0 mm 4 mps 719 mmHg 13%
    22:00 +41°C° 0 mm 4 mps 719 mmHg 14%
    23:00 +40°C° 0 mm 5 mps 718 mmHg 15%

    Tomorrow, 26 May, Tuesday

    Time Temperature Precipitation Wind Pressure Humidity
    00:00 +39°C° 0 mm 6 mps 718 mmHg 17%
    01:00 +38°C° 0 mm 7 mps 718 mmHg 20%
    02:00 +38°C° 0 mm 8 mps 718 mmHg 22%
    03:00 +37°C° 0 mm 8 mps 718 mmHg 26%
    04:00 +37°C° 0 mm 8 mps 718 mmHg 30%
    05:00 +35°C° 0 mm 8 mps 718 mmHg 34%
    06:00 +38°C° 0 mm 8 mps 718 mmHg 29%
    07:00 +40°C° 0 mm 9 mps 719 mmHg 24%
    08:00 +42°C° 0 mm 9 mps 719 mmHg 18%
    09:00 +45°C° 0 mm 9 mps 719 mmHg 15%
    10:00 +48°C° 0 mm 8 mps 719 mmHg 12%
    11:00 +50°C° 0 mm 8 mps 719 mmHg 9%
    12:00 +50°C° 0 mm 8 mps 719 mmHg 8%
    13:00 +51°C° 0 mm 8 mps 718 mmHg 8%
    14:00 +51°C° 0 mm 9 mps 718 mmHg 8%
    15:00 +51°C° 0 mm 8 mps 717 mmHg 7%
    16:00 +50°C° 0 mm 8 mps 717 mmHg 6%
    17:00 +50°C° 0 mm 8 mps 716 mmHg 6%
    18:00 +47°C° 0 mm 7 mps 717 mmHg 7%
    19:00 +45°C° 0 mm 5 mps 717 mmHg 8%
    20:00 +42°C° 0 mm 4 mps 717 mmHg 9%
    21:00 +41°C° 0 mm 5 mps 717 mmHg 11%
    22:00 +41°C° 0 mm 5 mps 717 mmHg 13%
    23:00 +40°C° 0 mm 6 mps 717 mmHg 15%

    Day after tomorrow, 27 May, Wednesday

    Time Temperature Precipitation Wind Pressure Humidity
    00:00 +39°C° 0 mm 7 mps 717 mmHg 21%
    01:00 +38°C° 0 mm 8 mps 716 mmHg 28%
    02:00 +38°C° 0 mm 8 mps 716 mmHg 34%
    03:00 +37°C° 0 mm 8 mps 716 mmHg 37%
    04:00 +35°C° 0 mm 8 mps 716 mmHg 41%
    05:00 +35°C° 0 mm 8 mps 716 mmHg 44%
    06:00 +37°C° 0 mm 8 mps 717 mmHg 36%
    07:00 +39°C° 0 mm 9 mps 717 mmHg 28%
    08:00 +42°C° 0 mm 10 mps 717 mmHg 20%
    09:00 +45°C° 0 mm 9 mps 717 mmHg 16%
    10:00 +48°C° 0 mm 9 mps 717 mmHg 12%
    11:00 +50°C° 0 mm 9 mps 717 mmHg 8%
    12:00 +50°C° 0 mm 9 mps 717 mmHg 7%
    13:00 +51°C° 0 mm 9 mps 716 mmHg 7%
    14:00 +51°C° 0 mm 9 mps 716 mmHg 6%
    15:00 +51°C° 0 mm 9 mps 716 mmHg 7%
    16:00 +50°C° 0 mm 8 mps 715 mmHg 7%
    17:00 +50°C° 0 mm 8 mps 715 mmHg 8%
    18:00 +47°C° 0 mm 7 mps 715 mmHg 10%
    19:00 +45°C° 0 mm 6 mps 715 mmHg 12%
    20:00 +42°C° 0 mm 4 mps 716 mmHg 13%
    21:00 +42°C° 0 mm 5 mps 716 mmHg 16%
    22:00 +41°C° 0 mm 5 mps 716 mmHg 18%
    23:00 +40°C° 0 mm 5 mps 716 mmHg 20%

    28 May, Thursday

    Time Temperature Precipitation Wind Pressure Humidity
    00:00 +39°C° 0 mm 6 mps 715 mmHg 26%
    01:00 +38°C° 0 mm 6 mps 715 mmHg 31%
    02:00 +35°C° 0 mm 7 mps 715 mmHg 37%
    03:00 +34°C° 0 mm 6 mps 715 mmHg 40%
    04:00 +33°C° 0 mm 6 mps 715 mmHg 43%
    05:00 +32°C° 0 mm 6 mps 715 mmHg 46%
    06:00 +33°C° 0 mm 6 mps 715 mmHg 43%
    07:00 +34°C° 0 mm 7 mps 716 mmHg 40%
    08:00 +35°C° 0 mm 8 mps 716 mmHg 37%
    09:00 +39°C° 0 mm 8 mps 716 mmHg 30%
    10:00 +43°C° 0 mm 8 mps 717 mmHg 24%
    11:00 +45°C° 0 mm 8 mps 717 mmHg 17%
    12:00 +48°C° 0 mm 8 mps 716 mmHg 14%
    13:00 +49°C° 0 mm 8 mps 716 mmHg 11%
    14:00 +50°C° 0 mm 8 mps 715 mmHg 8%
    15:00 +49°C° 0 mm 8 mps 715 mmHg 8%
    16:00 +49°C° 0 mm 8 mps 714 mmHg 8%
    17:00 +48°C° 0 mm 9 mps 714 mmHg 9%
    18:00 +46°C° 0 mm 8 mps 714 mmHg 11%
    19:00 +44°C° 0 mm 6 mps 714 mmHg 14%
    20:00 +41°C° 0 mm 5 mps 715 mmHg 16%
    21:00 +41°C° 0 mm 6 mps 715 mmHg 17%
    22:00 +40°C° 0 mm 7 mps 716 mmHg 18%
    23:00 +39°C° 0 mm 8 mps 716 mmHg 19%

    29 May, Friday

    Time Temperature Precipitation Wind Pressure Humidity
    00:00 +38°C° 0 mm 7 mps 716 mmHg 21%
    01:00 +36°C° 0 mm 7 mps 716 mmHg 24%
    02:00 +35°C° 0 mm 6 mps 716 mmHg 26%
    03:00 +34°C° 0 mm 6 mps 716 mmHg 30%
    04:00 +33°C° 0 mm 7 mps 716 mmHg 35%
    05:00 +32°C° 0 mm 7 mps 717 mmHg 39%
    06:00 +33°C° 0 mm 7 mps 717 mmHg 37%
    07:00 +34°C° 0 mm 6 mps 718 mmHg 35%
    08:00 +36°C° 0 mm 6 mps 718 mmHg 32%
    09:00 +39°C° 0 mm 6 mps 719 mmHg 28%
    10:00 +40°C° 0 mm 6 mps 719 mmHg 24%
    11:00 +42°C° 0 mm 6 mps 719 mmHg 20%
    12:00 +45°C° 0 mm 6 mps 718 mmHg 17%
    13:00 +46°C° 0 mm 6 mps 718 mmHg 14%
    14:00 +47°C° 0 mm 6 mps 717 mmHg 11%
    15:00 +47°C° 0 mm 6 mps 717 mmHg 12%
    16:00 +46°C° 0 mm 6 mps 717 mmHg 12%
    17:00 +46°C° 0 mm 6 mps 716 mmHg 13%
    18:00 +44°C° 0 mm 6 mps 717 mmHg 14%
    19:00 +42°C° 0 mm 6 mps 717 mmHg 16%
    20:00 +41°C° 0 mm 6 mps 717 mmHg 17%
    21:00 +40°C° 0 mm 5 mps 717 mmHg 18%
    22:00 +39°C° 0 mm 5 mps 718 mmHg 19%
    23:00 +37°C° 0 mm 4 mps 718 mmHg 20%

    30 May, Saturday

    Time Temperature Precipitation Wind Pressure Humidity
    00:00 +36°C° 0 mm 4 mps 718 mmHg 26%
    01:00 +35°C° 0 mm 5 mps 718 mmHg 31%
    02:00 +34°C° 0 mm 5 mps 718 mmHg 37%
    03:00 +33°C° 0 mm 4 mps 718 mmHg 44%
    04:00 +32°C° 0 mm 4 mps 719 mmHg 50%
    05:00 +32°C° 0 mm 4 mps 719 mmHg 57%
    06:00 +32°C° 0 mm 4 mps 719 mmHg 53%
    07:00 +33°C° 0 mm 5 mps 720 mmHg 50%
    08:00 +34°C° 0 mm 6 mps 720 mmHg 46%
    09:00 +36°C° 0 mm 6 mps 721 mmHg 38%
    10:00 +39°C° 0 mm 5 mps 721 mmHg 29%
    11:00 +42°C° 0 mm 5 mps 721 mmHg 21%
    12:00 +44°C° 0 mm 6 mps 720 mmHg 19%
    13:00 +45°C° 0 mm 6 mps 720 mmHg 16%
    14:00 +46°C° 0 mm 7 mps 719 mmHg 14%
    15:00 +46°C° 0 mm 7 mps 719 mmHg 15%
    16:00 +46°C° 0 mm 7 mps 718 mmHg 16%
    17:00 +45°C° 0 mm 7 mps 717 mmHg 16%
    18:00 +44°C° 0 mm 6 mps 717 mmHg 19%
    19:00 +41°C° 0 mm 5 mps 718 mmHg 21%
    20:00 +38°C° 0 mm 4 mps 718 mmHg 24%
    21:00 +38°C° 0 mm 4 mps 718 mmHg 25%
    22:00 +37°C° 0 mm 4 mps 719 mmHg 26%
    23:00 +37°C° 0 mm 5 mps 720 mmHg 27%
    Show more